Voltar ao catálogo

STARLINK-35672

AtivoComunicaçõesVLEO
NORAD 66394·PAYLOAD·🇺🇸 United States

Lançado Nov 8, 2025 de Cape Canaveral Space Force Station

Loading…

Próximas Passagens (próximas 24 horas)

TLE

AtualizadoSource: CelesTrak SupGP

Época: Sep 15, 2026, 03:04 UTC

1 66394C 25257Q   26258.12826389 -.00016352  00000+0 -48323-3 0  2580
2 66394  53.1586  52.9295 0001065  83.1396   8.8480 15.34392583    14

Acompanhe STARLINK-35672 em tempo real com AllMySat

Download on the App Store